NOAA 16 DEB, 41667

Orbit data source: Space-Track

NOAA 16 DEB, 41667 is space debris in SSO originally from a launch on Thu, 21 Sep 2000 UTC launched from the Air Force Western Test Range (AFWTR). Debris objects in space refer to the collection of defunct objects orbiting the Earth. Examples of debris include non-operational satellites, rocket bodies, and fragments generated from explosions, collisions, or faulty payload assembly.

Loading next visibility...
Identifier
41667, 2000-055PG
Orbit
SSO
Country
Flag of USUS
Related business
Manufacturer
Unknown
Mission
Spacecraft
Bus & Motor
Unknown
Mass
Unknown
Launch date (UTC)
2000-09-21 (25 years ago)
Launch vehicle
Unknown
Launch site
Air Force Western Test Range (AFWTR)
Object type
Payload
Rocket body
Debris
Shape & HBR
Unknown shape, 0.1 m
Radar Cross Section
Small (<0.1 m²)

Expand to show TLE details & history
Last TLE update: 2 days ago

TLE from 2 days ago
0 NOAA 16 DEB
1 41667U 00055PG  25291.51657330  .00002526  00000-0  10951-2 0  9996
2 41667  98.7703  31.8800 0030674 155.2139 205.0521 14.24875346493696
Epoch: 2025-10-18T12:23Z
TLE epoch observation values (Epoch: 2025-10-18T12:23:51.933Z)
Latitude
-0.00003°
Longitude
178.66715°
Altitude
831.819 km
Speed
7.427 km/s
True Right ascension
02h 07m 31s
True Declination
0° 00' 00"
Sunlit
Object was in full shadow at epoch
Visualization orbit readout
Latitude
Unknown
Longitude
Unknown
Altitude
Unknown
Speed
Unknown
Apparent Right ascension
Unknown
Apparent Declination
Unknown
Sunlit
N/A
Visualization observer readout
Local Sidereal Time
02:34:20
Azimuth
Unknown
Elevation
Unknown
Doppler factor
Unknown
Orbital elements
Apogee altitude
828.104 km
Perigee altitude
784.03 km
Semi-major axis
7,184.204 km
Eccentricity
0.00307
Inclination
98.7703°
RAAN
31.88°
Arg. of periapsis
155.2139°
True anomaly
204.90378°
Mean anomaly
205.0521°
Eccentric anomaly
204.97789°
Mean motion
3.56431 °/min
Orbital period
101 mins
BSTAR
0.0010951
Loading maneuver chart data...
Computing Atmospheric mass density...

Documentation

Showing up to 5 results
|